Location: Carrer del Canonge
(41.4901°N, 2.2931°E)
Time: 16:32:58
(UTC+00:00)

SPOT 3 Rocket - Pass Details

Date: 20 June 2021
Orbit: 779 x 794 km, 98.7° (Epoch: 26 July)

Event Time Altitude Azimuth Distance (km) Brightness Sun altitude
Exits shadow 21:09:08 10° 189° (S) 2,334 5.6 -14.8°
Reaches altitude 10° 21:09:08 10° 189° (S) 2,333 5.6 -14.8°
Maximum altitude 21:14:02 44° 261° (W) 1,080 4.5 -15.4°
Drops below altitude 10° 21:19:00 10° 333° (NNW) 2,358 7.3 -16.0°
Sets 21:21:27 0° 340° (NNW) 3,294 8.3 -16.2°
